Regional Weather Roundup
Issued by NWS

Home | Current Version | Previous Version | Graphics & Text | Print | Product List | Glossary On
Versions: 1 2 3 4 5 6 7 8 9 10 11 12 13 14 15 16 17 18 19 20 21 22 23 24 25 26 27 28 29 30 31 32 33 34 35 36 37 38 39 40 41 42 43 44 45 46 47 48 49 50
000
ASUS45 KCYS 010910
RWRWY

WYOMING REGIONAL WEATHER ROUNDUP
NATIONAL WEATHER SERVICE CHEYENNE WY
200 AM MST SUN MAR 01 2015

NOTE:  "FAIR" INDICATES FEW OR NO CLOUDS BELOW 12,000 FEET
WITH NO SIGNIFICANT WEATHER AND/OR OBSTRUCTIONS TO VISIBILITY.

WYZ001-011000-
YELLOWSTONE NATIONAL PARK

CITY           SKY/WX    TMP DP  RH WIND       PRES   REMARKS
LK YELLOWSTONE   N/A    -11 -17  75 NW3       30.04R
W YELLOWSTONE  NOT AVBL

$$
WYZ002>013-054>058-071-098>099-011000-
NORTHERN WYOMING

CITY           SKY/WX    TMP DP  RH WIND       PRES   REMARKS
JACKSON        FAIR       9   3  78 N14       30.03R WCI  -8
CODY           MOCLDY     9   5  85 S5        30.13R WCI   0
GREYBULL       FAIR      15   8  73 CALM      30.19R
WORLAND        CLOUDY    22  10  60 N7        30.17R WCI  13
SHERIDAN       FAIR       3  -3  76 CALM      30.15S
BUFFALO        FAIR       4  -4  69 W8        30.11R WCI  -9
GILLETTE       FAIR       9   5  84 CALM      30.13S
HULETT         FAIR      10   5  79 MISG      30.14S
NEWCASTLE      FAIR      14   9  79 CALM      30.15S

$$
WYZ014>020-022>026-101>103-011000-
CENTRAL WYOMING

CITY           SKY/WX    TMP DP  RH WIND       PRES   REMARKS
BIG PINEY      FAIR      11   4  73 CALM      30.01R
PINEDALE       CLOUDY    10   5  79 NW7       30.01R WCI   0
DUBOIS         CLOUDY    10   3  72 SW13      30.00R WCI  -5
LANDER         LGT SNOW  16  11  80 SW5       30.09R WCI   9
RIVERTON       CLOUDY    16   9  74 CALM      30.10R
CASPER         CLOUDY    13  10  88 W3        30.10R
DOUGLAS        LGT SNOW  16  12  84 E5        30.13R FOG     WCI   9

$$
WYZ021-027>030-104>119-011000-
SOUTHERN WYOMING

CITY           SKY/WX    TMP DP  RH WIND       PRES   REMARKS
EVANSTON       FAIR      18  16  92 E14       29.97R WCI   4
FORT BRIDGER   CLOUDY    19  19  98 E3        30.01R
ROCK SPRINGS   FAIR      10   5  80 E14       30.02R WCI  -6
DIXON          LGT SNOW  20  17  86 W7        30.02R WCI  11
RAWLINS        FAIR       8   3  80 N8        30.00R WCI  -4
SARATOGA       LGT SNOW  14  12  92 W6        29.99R WCI   5
LARAMIE        CLOUDY    13  10  88 NE3       29.94R
CHEYENNE       LGT SNOW  17  12  80 N6        30.00R WCI   9
TORRINGTON     CLOUDY    19  13  77 N14       30.12R WCI   6
PINE BLUFFS    PTSUNNY   19  18  93 CALM      30.06R

$$


USA.gov is the U.S. government's official web portal to all federal, state and local government web resources and services.